#timestamp,LO_Frequency,Hit 
1500397215.2,286046958.4,N
1500397235.0,286046962.7,N
1500397235.9,286046962.7,N
1500397255.8,286046960.4,N
1500397275.6,286046961.8,N
1500397295.4,286046964.2,N
1500397315.3,286046965.5,N
1500397335.1,286046967.2,N
1500397355.9,286046968.4,N
1500397375.7,286046968.7,N
1500397395.5,286046967.5,N
1500397415.4,286046966.9,N
1500397435.2,286046968.9,N
1500397455.0,286046967.8,N
1500397456.0,286046967.8,N
1500397475.8,286046969.4,N
1500397495.6,286046971.9,N
1500397515.5,286046973.9,N
1500397535.3,286046971.7,N
1500397555.1,286046973.4,N
1500397575.9,286046973.7,N
1500397595.7,286046972.6,N
1500397615.6,286046972.8,N
1500397635.4,286046974.3,N
1500397655.2,286046976.5,N
1500397675.1,286046977.6,N
1500397676.0,286046977.6,N
1500397695.8,286046979.9,N
1500397715.6,286046980.4,N
1500397735.5,286046980.4,N
1500397755.3,286046977.3,N
1500397775.2,286046978.6,N
1500397795.9,286046980.6,N
1500397815.7,286046984.4,N
1500397835.6,286046982.2,N
1500397855.4,286046982.2,N
1500397875.2,286046984.3,N
1500397895.1,286046985.9,N
1500397896.0,286046985.9,N
1500397915.8,286046987.5,N
1500397935.7,286046983.7,N
1500397955.5,286046987.2,N
1500397975.3,286046989.4,N
1500397995.2,286046988.6,N
1500398015.0,286046989.8,N
1500398015.9,286046989.8,N
1500398035.8,286046989.2,N
1500398055.6,286046988.6,N
1500398075.4,286046991.4,N
1500398095.3,286046990.4,N
1500398115.1,286046994.7,N
1500398135.8,286046993.2,N
1500398155.7,286046993.5,N
1500398175.5,286046993.3,N
1500398195.4,286046996.3,N
1500398215.2,286046995.9,N
1500398235.0,286046995.6,N
1500398235.9,286046995.6,N
1500398255.8,286046995.2,N
1500398275.6,286046999.0,N
1500398295.4,286046999.5,N
1500398315.3,286046998.3,N
1500398335.1,286046996.5,N
1500398355.9,286046997.2,N
1500398375.7,286046999.7,N
1500398395.5,286046998.7,N
1500398415.4,286046998.4,N
1500398435.2,286046999.9,N
1500398455.1,286047001.6,N
1500398456.0,286047001.6,N
1500398475.8,286047003.8,N
1500398495.6,286047001.5,N
1500398515.5,286047002.0,N
1500398535.3,286047001.3,N
1500398555.1,286047001.9,N
1500398575.9,286047005.8,N
1500398595.7,286047006.4,N
1500398615.6,286047006.2,N
1500398635.4,286047006.2,N
1500398655.2,286047006.7,N
1500398675.1,286047006.7,N
1500398676.0,286047006.7,N
1500398695.8,286047008.6,N
1500398715.6,286047009.0,N
1500398735.5,286047008.8,N
1500398755.3,286047012.4,N
1500398775.2,286047012.3,N
1500398795.9,286047011.7,N
1500398815.7,286047011.5,N
1500398835.6,286047011.6,N
1500398855.4,286047009.7,N
1500398875.2,286047011.2,N
1500398895.1,286047011.5,N
1500398896.0,286047011.5,N
1500398915.8,286047011.3,N
1500398935.7,286047013.8,N
1500398955.5,286047013.9,N
1500398975.3,286047012.4,N
1500398995.2,286047012.8,N
1500399015.0,286047013.0,N
1500399015.9,286047013.0,N
1500399035.7,286047012.9,N
1500399055.6,286047014.0,N
1500399075.4,286047010.9,N
1500399095.3,286047013.2,N
1500399115.1,286047015.2,N
1500399135.8,286047016.9,N
1500399155.7,286047012.7,N
1500399175.5,286047015.6,N
1500399195.4,286047015.3,N
1500399215.2,286047014.5,N
1500399235.0,286047015.3,N
1500399235.9,286047015.3,N
1500399255.8,286047017.0,N
1500399275.6,286047017.2,N
1500399295.4,286047017.0,N
1500399315.3,286047019.7,N
1500399335.1,286047020.0,N
1500399355.9,286047018.4,N
1500399375.7,286047017.3,N
1500399395.5,286047018.9,N
1500399415.4,286047019.4,N
1500399435.2,286047020.1,N
1500399455.0,286047021.9,N
1500399455.9,286047021.9,N
1500399475.8,286047021.2,N
1500399495.6,286047021.8,N
1500399515.5,286047019.0,N
1500399535.3,286047021.3,N
1500399555.1,286047023.3,N
1500399575.9,286047022.4,N
1500399595.7,286047024.7,N
1500399615.5,286047022.1,N
1500399635.4,286047025.1,N
1500399655.2,286047025.9,N
1500399675.1,286047025.7,N
1500399676.0,286047025.7,N
1500399695.8,286047026.0,N
1500399715.6,286047027.6,N
1500399735.5,286047027.1,N
1500399755.3,286047027.2,N
1500399775.1,286047027.0,N
1500399795.9,286047029.5,N
1500399815.7,286047029.8,N
1500399835.6,286047028.7,N
1500399855.4,286047028.5,N
1500399875.2,286047031.5,N
1500399895.1,286047029.0,N
1500399896.0,286047029.0,N
1500399915.8,286047028.6,N
1500399935.6,286047028.9,N
1500399955.5,286047028.8,N
1500399975.3,286047031.0,N
1500399995.2,286047028.8,N
1500400015.9,286047030.7,N
1500400035.7,286047033.0,N
1500400055.6,286047034.8,N
1500400075.4,286047034.4,N
1500400095.2,286047032.3,N
1500400115.1,286047035.7,N
1500400116.0,286047035.7,N
1500400135.8,286047034.3,N
1500400155.7,286047035.2,N
1500400175.5,286047037.5,N
1500400195.3,286047035.7,N
1500400215.2,286047035.9,N
1500400235.0,286047037.9,N
1500400235.9,286047037.9,N
1500400255.7,286047037.4,N
1500400275.6,286047037.0,N
1500400295.4,286047037.4,N
1500400315.3,286047037.5,N
1500400335.1,286047036.6,N
1500400336.0,286047036.6,N
1500400355.8,286047037.1,N
1500400375.7,286047039.1,N
1500400395.5,286047039.4,N
1500400415.3,286047042.3,N
1500400435.2,286047040.1,N
1500400455.0,286047042.3,N
1500400455.9,286047042.3,N
1500400475.8,286047042.3,N
1500400495.6,286047044.0,N
1500400515.4,286047045.9,N
1500400535.3,286047045.8,N
1500400555.1,286047045.9,N
1500400575.9,286047043.7,N
1500400595.7,286047045.2,N
1500400615.5,286047044.8,N
1500400635.4,286047044.8,N
1500400655.2,286047043.3,N
1500400675.0,286047045.1,N
1500400675.9,286047045.1,N
1500400695.8,286047045.4,N
1500400715.6,286047047.1,N
1500400735.5,286047045.4,N
1500400755.3,286047045.0,N
1500400775.1,286047044.5,N
1500400795.9,286047047.2,N
